Location: Pandora
(40.9481°N, 83.9611°W)
Time: 15:11:57
(UTC-04:00)

N. Korean satellite - Pass Details

Date: 18 September 2021
Orbit: 450 x 495 km, 97.3° (Epoch: 16 October)

Event Time Altitude Azimuth Distance (km) Brightness Sun altitude
Rises 05:57:12 0° 31° (NNE) 2,503 11.0 -16.1°
Reaches altitude 10° 05:59:54 10° 55° (NE) 1,631 10.4 -15.6°
Maximum altitude 06:02:04 16° 93° (E) 1,329 9.8 -15.2°
Drops below altitude 10° 06:04:15 10° 132° (SE) 1,639 9.7 -14.9°
Sets 06:06:58 0° 155° (SSE) 2,522 10.3 -14.4°
